{"data":{"norad_id":56411,"intl_designator":"2023-061AP","name":"STARLINK-6279","alt_names":[],"object_type":"PAYLOAD","status":"ACTIVE","operator":null,"country":"US","launch_date":"2023-05-04","launch_site_code":"AFETR","launch_vehicle":null,"mission":null,"orbit_class":"UNKNOWN","rcs_meters":null,"size_class":null,"mass_kg":null,"dimensions":null,"purposes":["comms"],"wikipedia_slug":null,"has_3d_model":false,"image_url":null,"decayed_at":null,"tle_current":{"epoch":"2026-09-20T03:57:21.228192Z","epoch_age_seconds":141031,"freshness":"FRESH","line1":"1 56411U 23061AP  26263.16482903 -.00000071  00000+0  69441-5 0  9998","line2":"2 56411  43.0007 169.0322 0000875 247.1223 112.9537 15.27574661186611","mean_motion":15.27574661,"eccentricity":8.75e-5,"inclination_deg":43.0007,"raan_deg":169.0322,"arg_perigee_deg":247.1223,"mean_anomaly_deg":112.9537,"bstar":6.9441e-6,"rev_number":18661,"period_min":94.267078183748,"perigee_km":482.46472779065,"apogee_km":483.66543815517,"semimajor_km":6861.2020829729,"source":"CELESTRAK","updated_at":"2026-09-21T09:00:33.436898Z"}}}